FHM7172 EDDB-EDDH

Flight info

Callsign FHM7172
Flight time 0h 38m
Altitude 24000
Route SUKIP3Q SUKIP M748 RARUP RARUP6A
Aircraft A320/M-SDE3FGHIRWY/LB1

Departure

Time 2026-05-06 14:04
Airport Berlin Brandenburg Airport (EDDB)

Arrival

Time 2026-05-06 14:42
Airport Hamburg Helmut Schmidt Airport (EDDH)
Time Latitude Longitude Altitude Speed Heading
2026-05-06 13:17 52.36084 13.51116 155 ft 0 kts 339°
2026-05-06 13:51 52.36073 13.51122 155 ft 4 kts 339°
2026-05-06 13:52 52.36047 13.51138 155 ft 4 kts 339°
2026-05-06 13:52 52.36027 13.51151 155 ft 4 kts 328°
2026-05-06 13:52 52.36009 13.51180 156 ft 4 kts 285°
2026-05-06 13:52 52.36009 13.51208 155 ft 0 kts 249°
2026-05-06 13:56 52.36006 13.51197 155 ft 6 kts 249°
2026-05-06 13:56 52.35968 13.51035 156 ft 20 kts 249°
2026-05-06 13:56 52.35923 13.50847 154 ft 15 kts 249°
2026-05-06 13:57 52.35885 13.50691 151 ft 12 kts 248°
2026-05-06 13:57 52.35850 13.50631 150 ft 0 kts 187°
2026-05-06 13:58 52.35829 13.50634 149 ft 12 kts 172°
2026-05-06 13:58 52.35753 13.50543 148 ft 15 kts 249°
2026-05-06 13:58 52.35719 13.50396 148 ft 13 kts 248°
2026-05-06 13:59 52.35687 13.50263 148 ft 13 kts 249°
2026-05-06 13:59 52.35650 13.50104 148 ft 15 kts 250°
2026-05-06 13:59 52.35615 13.49958 148 ft 13 kts 248°
2026-05-06 13:59 52.35584 13.49829 148 ft 13 kts 249°
2026-05-06 14:00 52.35549 13.49678 148 ft 14 kts 249°
2026-05-06 14:00 52.35517 13.49541 148 ft 12 kts 249°
2026-05-06 14:00 52.35486 13.49417 148 ft 11 kts 248°
2026-05-06 14:00 52.35450 13.49263 148 ft 19 kts 249°
2026-05-06 14:01 52.35401 13.49056 148 ft 20 kts 249°
2026-05-06 14:01 52.35351 13.48847 148 ft 20 kts 248°
2026-05-06 14:01 52.35300 13.48631 148 ft 21 kts 249°
2026-05-06 14:01 52.35246 13.48482 148 ft 11 kts 198°
2026-05-06 14:02 52.35177 13.48504 149 ft 9 kts 161°
2026-05-06 14:02 52.35137 13.48529 151 ft 4 kts 155°
2026-05-06 14:02 52.35115 13.48562 152 ft 12 kts 124°
2026-05-06 14:02 52.35089 13.48728 155 ft 16 kts 99°
2026-05-06 14:03 52.35070 13.48919 157 ft 18 kts 108°
2026-05-06 14:03 52.35081 13.49091 158 ft 16 kts 76°
2026-05-06 14:03 52.35159 13.49434 159 ft 70 kts 68°
2026-05-06 14:03 52.35439 13.50619 158 ft 149 kts 69°
2026-05-06 14:04 52.35839 13.52448 636 ft 176 kts 76°
2026-05-06 14:04 52.35588 13.54388 1602 ft 184 kts 127°
2026-05-06 14:04 52.34568 13.55668 2472 ft 189 kts 159°
2026-05-06 14:04 52.33228 13.55914 2909 ft 207 kts 188°
2026-05-06 14:05 52.31856 13.55017 3409 ft 225 kts 216°
2026-05-06 14:05 52.30541 13.53384 3863 ft 249 kts 219°
2026-05-06 14:05 52.29146 13.51565 4587 ft 260 kts 220°
2026-05-06 14:05 52.27752 13.49691 5532 ft 262 kts 225°
2026-05-06 14:06 52.26703 13.47279 6569 ft 259 kts 247°
2026-05-06 14:06 52.26289 13.44421 7519 ft 261 kts 266°
2026-05-06 14:06 52.26286 13.41429 8452 ft 264 kts 269°
2026-05-06 14:06 52.26291 13.39437 9066 ft 266 kts 269°
2026-05-06 14:07 52.26296 13.36398 9940 ft 269 kts 268°
2026-05-06 14:07 52.26365 13.33275 10489 ft 286 kts 278°
2026-05-06 14:07 52.27152 13.30149 10751 ft 316 kts 300°
2026-05-06 14:07 52.28903 13.26041 11141 ft 343 kts 302°
2026-05-06 14:08 52.29840 13.23918 11533 ft 349 kts 302°
2026-05-06 14:08 52.31755 13.19606 12473 ft 356 kts 302°
2026-05-06 14:08 52.32745 13.17369 12973 ft 359 kts 302°
2026-05-06 14:08 52.34211 13.14037 13682 ft 364 kts 302°
2026-05-06 14:09 52.35680 13.10683 14317 ft 368 kts 302°
2026-05-06 14:09 52.37160 13.07289 14970 ft 371 kts 302°
2026-05-06 14:09 52.38675 13.03793 15631 ft 374 kts 302°
2026-05-06 14:09 52.40186 13.00296 16278 ft 377 kts 301°
2026-05-06 14:10 52.41712 12.96756 16917 ft 381 kts 301°
2026-05-06 14:10 52.43254 12.93183 17539 ft 384 kts 301°
2026-05-06 14:10 52.44786 12.89637 18142 ft 387 kts 301°
2026-05-06 14:10 52.46348 12.86005 18677 ft 390 kts 301°
2026-05-06 14:11 52.47906 12.82373 19215 ft 392 kts 301°
2026-05-06 14:11 52.49480 12.78693 19755 ft 395 kts 301°
2026-05-06 14:11 52.51068 12.74985 20270 ft 398 kts 301°
2026-05-06 14:11 52.52668 12.71253 20776 ft 401 kts 301°
2026-05-06 14:12 52.54281 12.67487 21280 ft 404 kts 301°
2026-05-06 14:12 52.55906 12.63681 21772 ft 407 kts 301°
2026-05-06 14:12 52.57538 12.59849 22251 ft 411 kts 301°
2026-05-06 14:12 52.59180 12.55983 22718 ft 414 kts 301°
2026-05-06 14:13 52.60838 12.52076 23181 ft 417 kts 301°
2026-05-06 14:13 52.62504 12.48150 23589 ft 420 kts 301°
2026-05-06 14:13 52.64182 12.44198 23771 ft 422 kts 301°
2026-05-06 14:13 52.65883 12.40183 23816 ft 433 kts 301°
2026-05-06 14:14 52.67615 12.36083 23815 ft 438 kts 301°
2026-05-06 14:14 52.69363 12.31937 23820 ft 440 kts 301°
2026-05-06 14:14 52.71105 12.27799 23817 ft 440 kts 301°
2026-05-06 14:14 52.72860 12.23631 23821 ft 441 kts 301°
2026-05-06 14:15 52.74585 12.19521 23821 ft 441 kts 301°
2026-05-06 14:15 52.76331 12.15347 23822 ft 441 kts 301°
2026-05-06 14:15 52.78080 12.11157 23820 ft 442 kts 301°
2026-05-06 14:15 52.79829 12.06961 23820 ft 442 kts 302°
2026-05-06 14:16 52.81574 12.02774 23820 ft 442 kts 302°
2026-05-06 14:16 52.83310 11.98614 23818 ft 442 kts 302°
2026-05-06 14:16 52.85060 11.94412 23818 ft 442 kts 302°
2026-05-06 14:16 52.86801 11.90207 23813 ft 442 kts 302°
2026-05-06 14:17 52.88539 11.85997 23817 ft 442 kts 302°
2026-05-06 14:17 52.90275 11.81786 23812 ft 442 kts 302°
2026-05-06 14:17 52.91986 11.77636 23811 ft 442 kts 302°
2026-05-06 14:17 52.93746 11.73360 23809 ft 443 kts 302°
2026-05-06 14:18 52.95464 11.69185 23812 ft 444 kts 302°
2026-05-06 14:18 52.97213 11.64932 23811 ft 443 kts 302°
2026-05-06 14:18 52.98951 11.60700 23809 ft 444 kts 302°
2026-05-06 14:18 53.00682 11.56472 23803 ft 445 kts 302°
2026-05-06 14:19 53.02432 11.52186 23623 ft 447 kts 302°
2026-05-06 14:19 53.04159 11.47959 23387 ft 446 kts 302°
2026-05-06 14:19 53.05904 11.43683 23119 ft 445 kts 302°
2026-05-06 14:19 53.07633 11.39426 22841 ft 443 kts 302°
2026-05-06 14:20 53.09353 11.35179 22567 ft 441 kts 302°
2026-05-06 14:20 53.11154 11.31054 22282 ft 440 kts 308°
2026-05-06 14:20 53.13292 11.27401 21962 ft 440 kts 317°
2026-05-06 14:20 53.15694 11.24349 21636 ft 440 kts 323°
2026-05-06 14:21 53.18206 11.21467 21168 ft 436 kts 323°
2026-05-06 14:21 53.20699 11.18605 20660 ft 433 kts 323°
2026-05-06 14:21 53.23175 11.15753 20156 ft 430 kts 323°
2026-05-06 14:21 53.25630 11.12907 19652 ft 427 kts 323°
2026-05-06 14:22 53.28055 11.10087 19100 ft 424 kts 322°
2026-05-06 14:22 53.30472 11.07275 18549 ft 421 kts 322°
2026-05-06 14:22 53.32869 11.04483 17988 ft 418 kts 322°
2026-05-06 14:22 53.35250 11.01708 17367 ft 415 kts 322°
2026-05-06 14:23 53.37579 10.98991 16773 ft 412 kts 322°
2026-05-06 14:23 53.39946 10.96226 16170 ft 410 kts 323°
2026-05-06 14:23 53.42284 10.93498 15587 ft 407 kts 323°
2026-05-06 14:23 53.44596 10.90798 15015 ft 404 kts 323°
2026-05-06 14:24 53.46887 10.88112 14444 ft 401 kts 323°
2026-05-06 14:24 53.49170 10.85424 13911 ft 399 kts 323°
2026-05-06 14:24 53.51431 10.82755 13327 ft 396 kts 324°
2026-05-06 14:24 53.53672 10.80108 12718 ft 394 kts 324°
2026-05-06 14:25 53.55920 10.77458 12117 ft 391 kts 324°
2026-05-06 14:25 53.58135 10.74848 11535 ft 387 kts 325°
2026-05-06 14:25 53.60330 10.72258 11028 ft 381 kts 325°
2026-05-06 14:25 53.62454 10.69747 10864 ft 365 kts 325°
2026-05-06 14:26 53.64476 10.67353 10877 ft 344 kts 325°
2026-05-06 14:26 53.66318 10.65128 10883 ft 314 kts 321°
2026-05-06 14:26 53.67942 10.62796 10888 ft 302 kts 318°
2026-05-06 14:26 53.69292 10.60110 10890 ft 299 kts 298°
2026-05-06 14:27 53.69971 10.56826 10890 ft 297 kts 276°
2026-05-06 14:27 53.69901 10.53435 10668 ft 293 kts 255°
2026-05-06 14:27 53.69130 10.50431 10435 ft 290 kts 238°
2026-05-06 14:27 53.68074 10.47409 10365 ft 294 kts 239°
2026-05-06 14:28 53.67054 10.44400 10267 ft 295 kts 239°
2026-05-06 14:28 53.66055 10.41422 10157 ft 295 kts 240°
2026-05-06 14:28 53.65030 10.38366 10065 ft 295 kts 240°
2026-05-06 14:28 53.64016 10.35351 9972 ft 295 kts 239°
2026-05-06 14:29 53.63001 10.32339 9879 ft 295 kts 239°
2026-05-06 14:29 53.61996 10.29366 9783 ft 295 kts 239°
2026-05-06 14:29 53.60974 10.26348 9680 ft 295 kts 239°
2026-05-06 14:29 53.59957 10.23345 9568 ft 295 kts 239°
2026-05-06 14:30 53.58940 10.20359 9460 ft 295 kts 239°
2026-05-06 14:30 53.57920 10.17372 9353 ft 295 kts 239°
2026-05-06 14:30 53.56898 10.14384 9251 ft 294 kts 239°
2026-05-06 14:30 53.55883 10.11417 9142 ft 287 kts 239°
2026-05-06 14:31 53.54906 10.08556 9023 ft 275 kts 239°
2026-05-06 14:31 53.53968 10.05814 8898 ft 265 kts 239°
2026-05-06 14:31 53.53098 10.03282 8885 ft 260 kts 239°
2026-05-06 14:31 53.52158 10.00550 8793 ft 262 kts 239°
2026-05-06 14:32 53.51244 9.97892 8487 ft 262 kts 239°
2026-05-06 14:32 53.50328 9.95237 8170 ft 260 kts 237°
2026-05-06 14:32 53.49247 9.92834 7863 ft 257 kts 228°
2026-05-06 14:32 53.48098 9.90536 7557 ft 256 kts 229°
2026-05-06 14:33 53.46963 9.88256 7255 ft 254 kts 229°
2026-05-06 14:33 53.45846 9.86010 6950 ft 254 kts 229°
2026-05-06 14:33 53.44703 9.83711 6513 ft 258 kts 229°
2026-05-06 14:33 53.43535 9.81372 5999 ft 263 kts 229°
2026-05-06 14:34 53.42370 9.79037 5473 ft 259 kts 229°
2026-05-06 14:34 53.41224 9.76740 4961 ft 256 kts 229°
2026-05-06 14:34 53.40120 9.74428 4497 ft 251 kts 238°
2026-05-06 14:34 53.39630 9.71715 4152 ft 244 kts 272°
2026-05-06 14:35 53.40062 9.69027 3959 ft 239 kts 307°
2026-05-06 14:35 53.41230 9.67209 3831 ft 230 kts 339°
2026-05-06 14:35 53.42753 9.66759 3705 ft 220 kts 13°
2026-05-06 14:35 53.44213 9.67428 3581 ft 217 kts 23°
2026-05-06 14:36 53.45607 9.68283 3446 ft 209 kts 24°
2026-05-06 14:36 53.46941 9.69142 3320 ft 202 kts 24°
2026-05-06 14:36 53.48235 9.69978 3188 ft 195 kts 26°
2026-05-06 14:36 53.49311 9.71225 3078 ft 185 kts 51°
2026-05-06 14:37 53.50123 9.72854 3004 ft 178 kts 51°
2026-05-06 14:37 53.50896 9.74394 3003 ft 169 kts 51°
2026-05-06 14:37 53.51636 9.75874 3006 ft 166 kts 51°
2026-05-06 14:37 53.52377 9.77360 2972 ft 168 kts 51°
2026-05-06 14:38 53.53128 9.78866 2813 ft 168 kts 51°
2026-05-06 14:38 53.53876 9.80367 2610 ft 166 kts 51°
2026-05-06 14:38 53.54618 9.81856 2400 ft 165 kts 51°
2026-05-06 14:38 53.55352 9.83330 2171 ft 166 kts 51°
2026-05-06 14:39 53.56096 9.84825 1966 ft 167 kts 51°
2026-05-06 14:39 53.56854 9.86350 1714 ft 169 kts 50°
2026-05-06 14:39 53.57575 9.87802 1502 ft 150 kts 51°
2026-05-06 14:39 53.58202 9.89062 1290 ft 137 kts 50°
2026-05-06 14:40 53.58800 9.90266 1094 ft 131 kts 50°
2026-05-06 14:40 53.59383 9.91431 906 ft 129 kts 50°
2026-05-06 14:40 53.59953 9.92605 719 ft 130 kts 50°
2026-05-06 14:40 53.60535 9.93774 542 ft 130 kts 47°
2026-05-06 14:41 53.61125 9.94944 349 ft 133 kts 52°
2026-05-06 14:41 53.61701 9.96135 165 ft 130 kts 48°
2026-05-06 14:41 53.62277 9.97291 45 ft 126 kts 49°
2026-05-06 14:41 53.62714 9.98156 42 ft 65 kts 51°
2026-05-06 14:42 53.62968 9.98685 45 ft 51 kts 51°
2026-05-06 14:42 53.63090 9.99108 46 ft 20 kts 95°
2026-05-06 14:42 53.63085 9.99274 47 ft 12 kts 94°
2026-05-06 14:42 53.63101 9.99403 47 ft 12 kts 60°
2026-05-06 14:43 53.63159 9.99542 46 ft 16 kts 52°
2026-05-06 14:43 53.63216 9.99659 48 ft 0 kts 50°
2026-05-06 14:43 53.63226 9.99702 48 ft 11 kts 87°
2026-05-06 14:44 53.63156 9.99819 48 ft 16 kts 150°
2026-05-06 14:44 53.63067 9.99897 48 ft 12 kts 153°
2026-05-06 14:44 53.63028 9.99931 48 ft 0 kts 152°
2026-05-06 14:48 53.63021 9.99938 48 ft 7 kts 153°
2026-05-06 14:48 53.62981 9.99971 48 ft 10 kts 153°
2026-05-06 14:48 53.62944 10.00068 48 ft 11 kts 113°
2026-05-06 14:49 53.62905 10.00180 48 ft 7 kts 123°
2026-05-06 14:49 53.62889 10.00220 46 ft 1 kts 123°
2026-05-06 14:49 53.62889 10.00221 46 ft 0 kts 123°